Find Starlink 31000

NORAD ID: 58488 Int'l Des: 2023-186 Owner: SPXS Country: US Constellation: starlink operational
LEOCIRCULAR

Current View

Loading 3D Globe...

About Starlink 31000

Starlink 31000 (NORAD 58488) is a starlink constellation satellite (v2 mini) launched Dec 3, 2023 by SPXS of US. It operates in LEO, CIRCULAR orbit with a mass of 730.00 kg.

About Starlink 31000

Description loading...

Upcoming Passes

Passes for default location (London). Set your location on the main map for personalized predictions.

Altitude History

Loading altitude history...

Two-Line Element Set

1 58488U 23186R 26167.47243582 .00003073 00000-0 12122-3 0 9994
2 58488 42.9991 225.7849 0001138 275.7315 84.3407 15.27558436140994
Epoch: Jun 16, 2026 • Age: 7 hours

Current Status

Altitude 488.2 km
Velocity 7.62 km/s
Sub-Earth Point -23.14°S, 112.12°W
Launch Date Dec 3, 2023
Age 2.5 years
Type internet

Technical Details

Classification Payload
Mass 730.00 kg
Dry Mass 700.00 kg
Total Mass 730.00 kg
Length 0.30 m
Diameter 4.10 m
Span 29.00 m
Shape Box + pan
Manufacturer SPXS
Bus Type Starlink V2M
Phase Status In Orbit
Owner/State SPXS/US

Most Searched